Time,TemperatureF,DewpointF,PressureIn,WindDirection,WindDirectionDegrees,WindSpeedMPH,WindSpeedGustMPH,Humidity,HourlyPrecipIn,Conditions,Clouds,dailyrainin,SoftwareType,DateUTC
2013-03-31 00:00:00,60.8,56.3,29.86,North,1,0.0,0.0,85,0.00,,,0.00,LWC2 V0.39 B123,2013-03-31 06:00:00,
2013-03-31 00:05:00,60.2,56.0,29.86,North,0,0.0,0.0,86,0.00,,,0.00,LWC2 V0.39 B123,2013-03-31 06:05:00,
2013-03-31 00:10:00,59.7,55.8,29.86,North,1,0.0,0.0,87,0.00,,,0.00,LWC2 V0.39 B123,2013-03-31 06:10:00,
2013-03-31 00:15:00,59.5,55.6,29.87,North,0,0.0,0.0,87,0.00,,,0.00,LWC2 V0.39 B123,2013-03-31 06:15:00,
2013-03-31 00:20:00,59.4,55.8,29.87,North,1,0.0,0.0,88,0.00,,,0.00,LWC2 V0.39 B123,2013-03-31 06:20:00,
2013-03-31 00:25:00,59.5,56.3,29.87,NNE,12,1.0,2.0,89,0.00,,,0.00,LWC2 V0.39 B123,2013-03-31 06:25:00,
2013-03-31 00:30:00,59.5,55.9,29.88,NNE,14,1.0,2.0,88,0.00,,,0.00,LWC2 V0.39 B123,2013-03-31 06:30:00,
2013-03-31 00:35:00,59.3,56.1,29.88,NNE,20,0.0,2.0,89,0.00,,,0.00,LWC2 V0.39 B123,2013-03-31 06:35:00,
2013-03-31 00:40:00,58.8,54.9,29.88,NNE,20,0.0,0.0,87,0.00,,,0.00,LWC2 V0.39 B123,2013-03-31 06:40:00,
2013-03-31 00:45:00,58.1,54.9,29.88,NNE,20,0.0,0.0,89,0.00,,,0.00,LWC2 V0.39 B123,2013-03-31 06:45:00,
2013-03-31 00:50:00,57.8,54.9,29.88,NNE,20,0.0,0.0,90,0.00,,,0.00,LWC2 V0.39 B123,2013-03-31 06:50:00,
2013-03-31 00:55:00,57.6,55.0,29.88,NNE,20,0.0,0.0,91,0.00,,,0.00,LWC2 V0.39 B123,2013-03-31 06:55:00,
2013-03-31 01:00:00,57.4,54.8,29.88,NNE,20,0.0,0.0,91,0.00,,,0.00,LWC2 V0.39 B123,2013-03-31 07:00:00,
2013-03-31 01:05:00,57.2,54.6,29.88,NNE,20,0.0,0.0,91,0.00,,,0.00,LWC2 V0.39 B123,2013-03-31 07:05:00,
2013-03-31 01:10:00,57.1,54.8,29.88,NNE,21,0.0,0.0,92,0.00,,,0.00,LWC2 V0.39 B123,2013-03-31 07:10:00,
2013-03-31 01:15:00,57.4,55.4,29.88,NNE,22,0.0,0.0,93,0.00,,,0.00,LWC2 V0.39 B123,2013-03-31 07:15:00,
2013-03-31 01:20:00,57.6,55.3,29.88,NNE,22,0.0,0.0,92,0.00,,,0.00,LWC2 V0.39 B123,2013-03-31 07:20:00,
2013-03-31 01:25:00,57.4,55.1,29.88,NNE,22,0.0,0.0,92,0.00,,,0.00,LWC2 V0.39 B123,2013-03-31 07:25:00,
2013-03-31 01:30:00,57.2,54.9,29.87,East,79,0.0,0.0,92,0.00,,,0.00,LWC2 V0.39 B123,2013-03-31 07:30:00,
2013-03-31 01:35:00,56.8,54.5,29.87,East,79,0.0,0.0,92,0.00,,,0.00,LWC2 V0.39 B123,2013-03-31 07:35:00,
2013-03-31 01:40:00,56.5,54.2,29.87,East,79,0.0,0.0,92,0.00,,,0.00,LWC2 V0.39 B123,2013-03-31 07:40:00,
2013-03-31 01:45:00,56.5,54.5,29.87,East,79,0.0,0.0,93,0.00,,,0.00,LWC2 V0.39 B123,2013-03-31 07:45:00,
2013-03-31 01:50:00,56.3,54.3,29.87,East,79,0.0,0.0,93,0.00,,,0.00,LWC2 V0.39 B123,2013-03-31 07:50:00,
2013-03-31 01:55:00,56.1,54.1,29.86,East,79,0.0,0.0,93,0.00,,,0.00,LWC2 V0.39 B123,2013-03-31 07:55:00,
2013-03-31 02:00:00,56.0,54.3,29.86,East,79,0.0,0.0,94,0.00,,,0.00,LWC2 V0.39 B123,2013-03-31 08:00:00,
2013-03-31 02:05:00,56.3,54.6,29.85,East,79,0.0,0.0,94,0.00,,,0.00,LWC2 V0.39 B123,2013-03-31 08:05:00,
2013-03-31 02:10:00,56.3,54.6,29.85,East,79,0.0,0.0,94,0.00,,,0.00,LWC2 V0.39 B123,2013-03-31 08:10:00,
2013-03-31 02:15:00,55.9,54.2,29.84,East,79,0.0,0.0,94,0.00,,,0.00,LWC2 V0.39 B123,2013-03-31 08:15:00,
2013-03-31 02:20:00,55.6,53.9,29.85,East,79,0.0,0.0,94,0.00,,,0.00,LWC2 V0.39 B123,2013-03-31 08:20:00,
2013-03-31 02:25:00,55.4,53.7,29.86,East,79,0.0,0.0,94,0.00,,,0.00,LWC2 V0.39 B123,2013-03-31 08:25:00,
2013-03-31 02:30:00,56.0,54.6,29.87,NNE,12,0.0,2.0,95,0.00,,,0.00,LWC2 V0.39 B123,2013-03-31 08:30:00,
2013-03-31 02:35:00,55.7,54.0,29.88,North,9,4.0,4.0,94,0.00,,,0.00,LWC2 V0.39 B123,2013-03-31 08:35:00,
2013-03-31 02:40:00,55.3,53.6,29.88,NNE,14,0.0,2.0,94,0.00,,,0.00,LWC2 V0.39 B123,2013-03-31 08:40:00,
2013-03-31 02:45:00,54.9,53.2,29.89,NNE,18,0.0,3.0,94,0.00,,,0.00,LWC2 V0.39 B123,2013-03-31 08:45:00,
2013-03-31 02:50:00,55.1,53.7,29.89,NE,50,1.0,2.0,95,0.00,,,0.00,LWC2 V0.39 B123,2013-03-31 08:50:00,
2013-03-31 02:55:00,55.7,54.6,29.89,NE,43,2.0,4.0,96,0.00,,,0.00,LWC2 V0.39 B123,2013-03-31 08:55:00,
2013-03-31 03:00:00,56.1,55.0,29.89,ENE,68,0.0,3.0,96,0.00,,,0.00,LWC2 V0.39 B123,2013-03-31 09:00:00,
2013-03-31 03:05:00,56.3,55.2,29.90,NE,39,0.0,2.0,96,0.00,,,0.00,LWC2 V0.39 B123,2013-03-31 09:05:00,
2013-03-31 03:10:00,56.4,55.0,29.90,NE,35,0.0,0.0,95,0.00,,,0.00,LWC2 V0.39 B123,2013-03-31 09:10:00,
2013-03-31 03:15:00,56.3,54.9,29.91,NW,319,0.0,0.0,95,0.00,,,0.00,LWC2 V0.39 B123,2013-03-31 09:15:00,
2013-03-31 03:20:00,56.4,55.0,29.91,NW,319,0.0,0.0,95,0.00,,,0.00,LWC2 V0.39 B123,2013-03-31 09:20:00,
2013-03-31 03:25:00,56.5,55.1,29.91,NW,323,0.0,0.0,95,0.00,,,0.00,LWC2 V0.39 B123,2013-03-31 09:25:00,
2013-03-31 03:30:00,56.3,54.9,29.90,NW,323,0.0,0.0,95,0.00,,,0.00,LWC2 V0.39 B123,2013-03-31 09:30:00,
2013-03-31 03:35:00,56.2,54.8,29.91,NW,304,0.0,0.0,95,0.00,,,0.00,LWC2 V0.39 B123,2013-03-31 09:35:00,
2013-03-31 03:40:00,56.0,54.6,29.95,ENE,63,19.0,19.0,95,0.00,,,0.00,LWC2 V0.39 B123,2013-03-31 09:40:00,
2013-03-31 03:45:00,55.9,51.8,29.95,NE,44,5.0,26.0,86,0.00,,,0.00,LWC2 V0.39 B123,2013-03-31 09:45:00,
2013-03-31 03:50:00,55.3,49.9,29.96,NNE,18,18.0,20.0,82,0.00,,,0.00,LWC2 V0.39 B123,2013-03-31 09:50:00,
2013-03-31 03:55:00,54.8,49.4,29.96,ENE,59,13.0,21.0,82,0.00,,,0.00,LWC2 V0.39 B123,2013-03-31 09:55:00,
2013-03-31 04:00:00,54.3,49.2,29.96,NNE,25,10.0,18.0,83,0.00,,,0.00,LWC2 V0.39 B123,2013-03-31 10:00:00,
2013-03-31 04:05:00,53.7,49.6,29.96,NNE,18,7.0,17.0,86,0.00,,,0.00,LWC2 V0.39 B123,2013-03-31 10:05:00,
2013-03-31 04:10:00,52.9,49.4,29.96,NNE,16,10.0,14.0,88,0.00,,,0.00,LWC2 V0.39 B123,2013-03-31 10:10:00,
2013-03-31 04:15:00,52.4,49.3,29.97,NNE,23,5.0,14.0,89,0.00,,,0.00,LWC2 V0.39 B123,2013-03-31 10:15:00,
2013-03-31 04:20:00,52.2,49.1,29.97,NE,47,10.0,10.0,89,0.00,,,0.00,LWC2 V0.39 B123,2013-03-31 10:20:00,
2013-03-31 04:25:00,52.0,48.9,29.96,NNE,25,8.0,10.0,89,0.00,,,0.00,LWC2 V0.39 B123,2013-03-31 10:25:00,
2013-03-31 04:30:00,51.9,48.8,29.96,North,8,3.0,12.0,89,0.00,,,0.00,LWC2 V0.39 B123,2013-03-31 10:30:00,
2013-03-31 04:35:00,51.8,48.7,29.95,NNW,344,2.0,12.0,89,0.00,,,0.00,LWC2 V0.39 B123,2013-03-31 10:35:00,
2013-03-31 04:40:00,51.8,48.7,29.95,ENE,58,4.0,10.0,89,0.00,,,0.00,LWC2 V0.39 B123,2013-03-31 10:40:00,
2013-03-31 04:45:00,51.8,48.7,29.95,ENE,72,3.0,6.0,89,0.00,,,0.00,LWC2 V0.39 B123,2013-03-31 10:45:00,
2013-03-31 04:50:00,51.8,48.7,29.93,NE,34,2.0,5.0,89,0.00,,,0.00,LWC2 V0.39 B123,2013-03-31 10:50:00,
2013-03-31 04:55:00,51.8,48.7,29.94,East,98,3.0,3.0,89,0.00,,,0.01,LWC2 V0.39 B123,2013-03-31 10:55:00,
2013-03-31 05:00:00,51.7,48.9,29.94,East,81,1.0,2.0,90,0.00,,,0.01,LWC2 V0.39 B123,2013-03-31 11:00:00,
2013-03-31 05:05:00,51.4,48.6,29.94,ESE,108,1.0,3.0,90,0.00,,,0.01,LWC2 V0.39 B123,2013-03-31 11:05:00,
2013-03-31 05:10:00,51.2,48.7,29.94,ESE,117,1.0,1.0,91,0.00,,,0.01,LWC2 V0.39 B123,2013-03-31 11:10:00,
2013-03-31 05:15:00,51.1,48.6,29.93,ESE,115,0.0,2.0,91,0.00,,,0.01,LWC2 V0.39 B123,2013-03-31 11:15:00,
2013-03-31 05:20:00,51.0,48.5,29.92,ESE,107,0.0,1.0,91,0.00,,,0.01,LWC2 V0.39 B123,2013-03-31 11:20:00,
2013-03-31 05:25:00,51.0,48.8,29.92,NNE,29,3.0,4.0,92,0.00,,,0.01,LWC2 V0.39 B123,2013-03-31 11:25:00,
2013-03-31 05:30:00,51.1,48.6,29.93,NNE,29,2.0,4.0,91,0.00,,,0.01,LWC2 V0.39 B123,2013-03-31 11:30:00,
2013-03-31 05:35:00,51.2,48.7,29.94,NE,39,2.0,5.0,91,0.00,,,0.01,LWC2 V0.39 B123,2013-03-31 11:35:00,
2013-03-31 05:40:00,51.2,48.7,29.95,NNE,22,0.0,2.0,91,0.00,,,0.01,LWC2 V0.39 B123,2013-03-31 11:40:00,
2013-03-31 05:45:00,51.3,48.8,29.95,NE,48,4.0,6.0,91,0.00,,,0.01,LWC2 V0.39 B123,2013-03-31 11:45:00,
2013-03-31 05:50:00,51.6,48.8,29.94,NE,53,1.0,4.0,90,0.00,,,0.01,LWC2 V0.39 B123,2013-03-31 11:50:00,
2013-03-31 05:55:00,51.7,48.6,29.94,NE,39,3.0,5.0,89,0.00,,,0.01,LWC2 V0.39 B123,2013-03-31 11:55:00,
2013-03-31 06:00:00,51.9,48.8,29.94,NE,53,3.0,3.0,89,0.00,,,0.01,LWC2 V0.39 B123,2013-03-31 12:00:00,
2013-03-31 06:05:00,51.9,48.5,29.94,ESE,117,2.0,2.0,88,0.00,,,0.01,LWC2 V0.39 B123,2013-03-31 12:05:00,
2013-03-31 06:10:00,51.9,48.5,29.95,East,82,0.0,2.0,88,0.00,,,0.01,LWC2 V0.39 B123,2013-03-31 12:10:00,
2013-03-31 06:15:00,52.0,48.3,29.96,NNE,25,1.0,7.0,87,0.00,,,0.01,LWC2 V0.39 B123,2013-03-31 12:15:00,
2013-03-31 06:20:00,51.9,48.2,29.97,NE,42,5.0,5.0,87,0.00,,,0.01,LWC2 V0.39 B123,2013-03-31 12:20:00,
2013-03-31 06:25:00,51.8,48.1,29.97,ENE,64,2.0,2.0,87,0.00,,,0.01,LWC2 V0.39 B123,2013-03-31 12:25:00,
2013-03-31 06:30:00,51.7,48.0,29.97,ENE,70,1.0,2.0,87,0.00,,,0.01,LWC2 V0.39 B123,2013-03-31 12:30:00,
2013-03-31 06:35:00,51.5,47.8,29.97,ENE,66,1.0,1.0,87,0.00,,,0.01,LWC2 V0.39 B123,2013-03-31 12:35:00,
2013-03-31 06:40:00,51.3,47.6,29.98,ESE,117,1.0,1.0,87,0.00,,,0.01,LWC2 V0.39 B123,2013-03-31 12:40:00,
2013-03-31 06:45:00,51.2,47.8,29.98,NE,39,1.0,5.0,88,0.00,,,0.01,LWC2 V0.39 B123,2013-03-31 12:45:00,
2013-03-31 06:50:00,51.2,47.8,29.98,East,82,0.0,1.0,88,0.00,,,0.01,LWC2 V0.39 B123,2013-03-31 12:50:00,
2013-03-31 06:55:00,51.1,47.7,29.98,NE,41,1.0,3.0,88,0.00,,,0.01,LWC2 V0.39 B123,2013-03-31 12:55:00,
2013-03-31 07:00:00,51.3,47.9,29.98,ENE,67,2.0,2.0,88,0.00,,,0.01,LWC2 V0.39 B123,2013-03-31 13:00:00,
2013-03-31 07:05:00,51.6,47.9,29.99,NNE,25,2.0,2.0,87,0.00,,,0.01,LWC2 V0.39 B123,2013-03-31 13:05:00,
2013-03-31 07:10:00,51.9,48.2,29.99,NE,41,3.0,8.0,87,0.00,,,0.01,LWC2 V0.39 B123,2013-03-31 13:10:00,
2013-03-31 07:15:00,52.4,48.3,29.99,NNE,26,4.0,4.0,86,0.00,,,0.01,LWC2 V0.39 B123,2013-03-31 13:15:00,
2013-03-31 07:20:00,52.5,48.4,29.99,North,358,2.0,4.0,86,0.00,,,0.01,LWC2 V0.39 B123,2013-03-31 13:20:00,
2013-03-31 07:25:00,52.6,48.2,29.99,NE,44,2.0,4.0,85,0.00,,,0.01,LWC2 V0.39 B123,2013-03-31 13:25:00,
2013-03-31 07:30:00,52.8,48.4,29.99,ENE,59,3.0,7.0,85,0.00,,,0.01,LWC2 V0.39 B123,2013-03-31 13:30:00,
2013-03-31 07:35:00,52.8,48.1,29.98,NE,43,7.0,8.0,84,0.00,,,0.01,LWC2 V0.39 B123,2013-03-31 13:35:00,
2013-03-31 07:40:00,52.7,48.3,29.98,NE,55,2.0,7.0,85,0.00,,,0.01,LWC2 V0.39 B123,2013-03-31 13:40:00,
2013-03-31 07:45:00,53.3,48.6,29.98,NNE,24,4.0,11.0,84,0.00,,,0.01,LWC2 V0.39 B123,2013-03-31 13:45:00,
2013-03-31 07:50:00,53.9,48.9,29.98,NE,53,5.0,8.0,83,0.00,,,0.01,LWC2 V0.39 B123,2013-03-31 13:50:00,
2013-03-31 07:55:00,54.4,49.0,29.98,East,79,3.0,9.0,82,0.00,,,0.01,LWC2 V0.39 B123,2013-03-31 13:55:00,
2013-03-31 08:00:00,55.0,49.3,29.98,ENE,59,5.0,7.0,81,0.00,,,0.01,LWC2 V0.39 B123,2013-03-31 14:00:00,
2013-03-31 08:05:00,55.4,49.0,29.98,ENE,65,4.0,7.0,79,0.00,,,0.01,LWC2 V0.39 B123,2013-03-31 14:05:00,
2013-03-31 08:10:00,55.8,49.0,29.98,NNE,32,9.0,9.0,78,0.00,,,0.01,LWC2 V0.39 B123,2013-03-31 14:10:00,
2013-03-31 08:15:00,56.0,48.5,29.98,NNE,13,4.0,9.0,76,0.00,,,0.01,LWC2 V0.39 B123,2013-03-31 14:15:00,
2013-03-31 08:20:00,56.4,48.9,29.98,ENE,57,4.0,5.0,76,0.00,,,0.01,LWC2 V0.39 B123,2013-03-31 14:20:00,
2013-03-31 08:25:00,56.8,49.7,29.98,NE,56,4.0,5.0,77,0.00,,,0.01,LWC2 V0.39 B123,2013-03-31 14:25:00,
2013-03-31 08:30:00,57.0,48.8,29.98,ENE,68,6.0,14.0,74,0.00,,,0.01,LWC2 V0.39 B123,2013-03-31 14:30:00,
2013-03-31 08:35:00,57.1,48.5,29.99,ENE,70,3.0,10.0,73,0.00,,,0.01,LWC2 V0.39 B123,2013-03-31 14:35:00,
2013-03-31 08:40:00,57.4,48.4,29.99,ENE,76,3.0,9.0,72,0.00,,,0.01,LWC2 V0.39 B123,2013-03-31 14:40:00,
2013-03-31 08:45:00,57.8,48.5,29.99,NNE,25,3.0,8.0,71,0.00,,,0.01,LWC2 V0.39 B123,2013-03-31 14:45:00,
2013-03-31 08:50:00,58.2,49.2,29.99,North,11,5.0,7.0,72,0.00,,,0.01,LWC2 V0.39 B123,2013-03-31 14:50:00,
2013-03-31 08:55:00,58.5,48.7,29.99,NNE,25,4.0,5.0,70,0.00,,,0.01,LWC2 V0.39 B123,2013-03-31 14:55:00,
2013-03-31 09:00:00,58.8,48.7,29.99,NNE,23,6.0,6.0,69,0.00,,,0.01,LWC2 V0.39 B123,2013-03-31 15:00:00,
2013-03-31 09:05:00,59.2,48.6,29.99,NNE,23,8.0,8.0,68,0.00,,,0.01,LWC2 V0.39 B123,2013-03-31 15:05:00,
2013-03-31 09:10:00,59.4,48.4,29.99,NE,43,6.0,9.0,67,0.00,,,0.01,LWC2 V0.39 B123,2013-03-31 15:10:00,
2013-03-31 09:15:00,59.7,48.3,29.99,NE,43,7.0,9.0,66,0.00,,,0.01,LWC2 V0.39 B123,2013-03-31 15:15:00,
2013-03-31 09:20:00,60.3,48.9,29.99,NNE,30,4.0,9.0,66,0.00,,,0.01,LWC2 V0.39 B123,2013-03-31 15:20:00,
2013-03-31 09:25:00,60.1,48.3,29.99,NE,49,5.0,8.0,65,0.00,,,0.01,LWC2 V0.39 B123,2013-03-31 15:25:00,
2013-03-31 09:30:00,59.4,47.6,30.00,ENE,63,3.0,5.0,65,0.00,,,0.01,LWC2 V0.39 B123,2013-03-31 15:30:00,
2013-03-31 09:35:00,60.1,48.3,30.00,ENE,73,5.0,8.0,65,0.00,,,0.01,LWC2 V0.39 B123,2013-03-31 15:35:00,
2013-03-31 09:40:00,60.9,48.2,30.00,NNE,32,4.0,11.0,63,0.00,,,0.01,LWC2 V0.39 B123,2013-03-31 15:40:00,
2013-03-31 09:45:00,61.0,48.3,30.00,ENE,77,4.0,6.0,63,0.00,,,0.01,LWC2 V0.39 B123,2013-03-31 15:45:00,
2013-03-31 09:50:00,61.3,47.7,30.00,East,84,3.0,8.0,61,0.00,,,0.01,LWC2 V0.39 B123,2013-03-31 15:50:00,
2013-03-31 09:55:00,61.9,48.7,30.00,East,84,4.0,6.0,62,0.00,,,0.01,LWC2 V0.39 B123,2013-03-31 15:55:00,
2013-03-31 10:00:00,62.7,48.6,30.00,North,10,2.0,5.0,60,0.00,,,0.01,LWC2 V0.39 B123,2013-03-31 16:00:00,
2013-03-31 10:05:00,62.7,47.7,30.00,NE,54,6.0,7.0,58,0.00,,,0.01,LWC2 V0.39 B123,2013-03-31 16:05:00,
2013-03-31 10:10:00,62.9,47.4,30.00,North,4,4.0,10.0,57,0.00,,,0.01,LWC2 V0.39 B123,2013-03-31 16:10:00,
2013-03-31 10:15:00,63.7,47.7,29.99,ENE,71,5.0,9.0,56,0.00,,,0.01,LWC2 V0.39 B123,2013-03-31 16:15:00,
2013-03-31 10:20:00,63.7,47.2,29.99,NNE,33,4.0,7.0,55,0.00,,,0.01,LWC2 V0.39 B123,2013-03-31 16:20:00,
2013-03-31 10:25:00,63.6,48.1,29.99,NE,55,2.0,7.0,57,0.00,,,0.01,LWC2 V0.39 B123,2013-03-31 16:25:00,
2013-03-31 10:30:00,63.6,46.6,29.99,North,10,7.0,9.0,54,0.00,,,0.01,LWC2 V0.39 B123,2013-03-31 16:30:00,
2013-03-31 10:35:00,64.0,48.9,29.99,ENE,75,2.0,10.0,58,0.00,,,0.01,LWC2 V0.39 B123,2013-03-31 16:35:00,
2013-03-31 10:40:00,64.5,48.0,29.99,ENE,60,3.0,8.0,55,0.00,,,0.01,LWC2 V0.39 B123,2013-03-31 16:40:00,
2013-03-31 10:45:00,64.3,47.3,29.99,ENE,78,4.0,7.0,54,0.00,,,0.01,LWC2 V0.39 B123,2013-03-31 16:45:00,
2013-03-31 10:50:00,64.0,47.0,29.99,ENE,70,5.0,12.0,54,0.00,,,0.01,LWC2 V0.39 B123,2013-03-31 16:50:00,
2013-03-31 10:55:00,64.1,46.1,29.99,North,9,5.0,9.0,52,0.00,,,0.01,LWC2 V0.39 B123,2013-03-31 16:55:00,
2013-03-31 11:00:00,63.9,46.4,29.99,NNE,30,2.0,4.0,53,0.00,,,0.01,LWC2 V0.39 B123,2013-03-31 17:00:00,
2013-03-31 11:05:00,64.2,46.2,29.99,NE,44,4.0,7.0,52,0.00,,,0.01,LWC2 V0.39 B123,2013-03-31 17:05:00,
2013-03-31 11:11:00,64.0,47.5,29.99,NNE,31,4.0,6.0,55,0.00,,,0.01,LWC2 V0.39 B123,2013-03-31 17:11:00,
2013-03-31 11:16:00,63.4,46.0,29.99,ENE,73,5.0,10.0,53,0.00,,,0.01,LWC2 V0.39 B123,2013-03-31 17:16:00,
2013-03-31 11:21:00,63.2,46.8,29.99,NE,42,4.0,7.0,55,0.00,,,0.01,LWC2 V0.39 B123,2013-03-31 17:21:00,
2013-03-31 11:26:00,64.2,47.7,29.99,NNE,29,8.0,8.0,55,0.00,,,0.01,LWC2 V0.39 B123,2013-03-31 17:26:00,
2013-03-31 11:31:00,64.8,48.2,29.99,ENE,68,4.0,9.0,55,0.00,,,0.01,LWC2 V0.39 B123,2013-03-31 17:31:00,
2013-03-31 11:36:00,64.8,47.8,29.99,ENE,74,2.0,4.0,54,0.00,,,0.01,LWC2 V0.39 B123,2013-03-31 17:36:00,
2013-03-31 11:41:00,65.2,47.1,29.98,NNE,19,8.0,9.0,52,0.00,,,0.01,LWC2 V0.39 B123,2013-03-31 17:41:00,
2013-03-31 11:46:00,65.1,47.0,29.98,East,82,3.0,11.0,52,0.00,,,0.01,LWC2 V0.39 B123,2013-03-31 17:46:00,
2013-03-31 11:52:00,66.1,48.0,29.98,East,83,4.0,7.0,52,0.00,,,0.01,LWC2 V0.39 B123,2013-03-31 17:52:00,
2013-03-31 11:58:00,65.5,46.9,29.98,East,84,4.0,8.0,51,0.00,,,0.01,LWC2 V0.39 B123,2013-03-31 17:58:00,
2013-03-31 12:03:00,65.6,48.5,29.98,ESE,105,2.0,8.0,54,0.00,,,0.01,LWC2 V0.39 B123,2013-03-31 18:03:00,
2013-03-31 12:09:00,66.0,48.4,29.98,East,101,2.0,3.0,53,0.00,,,0.01,LWC2 V0.39 B123,2013-03-31 18:09:00,
2013-03-31 12:15:00,66.6,48.4,29.98,ENE,77,6.0,6.0,52,0.00,,,0.01,LWC2 V0.39 B123,2013-03-31 18:15:00,
2013-03-31 12:20:00,66.0,47.3,29.97,NE,49,4.0,5.0,51,0.00,,,0.01,LWC2 V0.39 B123,2013-03-31 18:20:00,
2013-03-31 12:25:00,66.4,48.2,29.97,ENE,58,6.0,8.0,52,0.00,,,0.01,LWC2 V0.39 B123,2013-03-31 18:25:00,
2013-03-31 12:30:00,67.1,48.9,29.97,NE,43,4.0,7.0,52,0.00,,,0.01,LWC2 V0.39 B123,2013-03-31 18:30:00,
2013-03-31 12:35:00,67.5,48.2,29.97,NE,47,7.0,10.0,50,0.00,,,0.01,LWC2 V0.39 B123,2013-03-31 18:35:00,
2013-03-31 12:40:00,67.6,46.1,29.97,ESE,109,2.0,10.0,46,0.00,,,0.01,LWC2 V0.39 B123,2013-03-31 18:40:00,
2013-03-31 12:45:00,67.9,46.9,29.97,NE,51,4.0,7.0,47,0.00,,,0.01,LWC2 V0.39 B123,2013-03-31 18:45:00,
2013-03-31 12:50:00,68.5,48.0,29.97,East,82,4.0,6.0,48,0.00,,,0.01,LWC2 V0.39 B123,2013-03-31 18:50:00,
2013-03-31 12:55:00,68.2,46.6,29.97,East,85,5.0,8.0,46,0.00,,,0.01,LWC2 V0.39 B123,2013-03-31 18:55:00,
2013-03-31 13:00:00,68.5,48.6,29.97,East,86,4.0,7.0,49,0.00,,,0.01,LWC2 V0.39 B123,2013-03-31 19:00:00,
2013-03-31 13:05:00,68.3,47.3,29.97,ENE,73,4.0,4.0,47,0.00,,,0.01,LWC2 V0.39 B123,2013-03-31 19:05:00,
2013-03-31 13:10:00,68.4,47.9,29.97,NE,43,5.0,6.0,48,0.00,,,0.01,LWC2 V0.39 B123,2013-03-31 19:10:00,
2013-03-31 13:15:00,68.5,48.0,29.96,ENE,76,5.0,6.0,48,0.00,,,0.01,LWC2 V0.39 B123,2013-03-31 19:15:00,
2013-03-31 13:20:00,68.2,47.2,29.96,ENE,70,5.0,7.0,47,0.00,,,0.01,LWC2 V0.39 B123,2013-03-31 19:20:00,
2013-03-31 13:26:00,68.1,47.1,29.96,East,95,3.0,8.0,47,0.00,,,0.01,LWC2 V0.39 B123,2013-03-31 19:26:00,
2013-03-31 13:32:00,68.7,47.1,29.96,SE,127,2.0,7.0,46,0.00,,,0.01,LWC2 V0.39 B123,2013-03-31 19:32:00,
2013-03-31 13:37:00,68.2,47.2,29.96,SE,146,3.0,7.0,47,0.00,,,0.01,LWC2 V0.39 B123,2013-03-31 19:37:00,
2013-03-31 13:42:00,68.2,47.2,29.95,SE,130,5.0,8.0,47,0.00,,,0.01,LWC2 V0.39 B123,2013-03-31 19:42:00,
2013-03-31 13:47:00,69.0,48.5,29.96,ENE,72,6.0,7.0,48,0.00,,,0.01,LWC2 V0.39 B123,2013-03-31 19:47:00,
2013-03-31 13:52:00,69.3,48.2,29.96,East,90,2.0,5.0,47,0.00,,,0.01,LWC2 V0.39 B123,2013-03-31 19:52:00,
2013-03-31 13:58:00,69.3,48.2,29.95,ESE,105,5.0,6.0,47,0.00,,,0.01,LWC2 V0.39 B123,2013-03-31 19:58:00,
2013-03-31 14:03:00,69.3,48.2,29.95,ENE,67,3.0,4.0,47,0.00,,,0.01,LWC2 V0.39 B123,2013-03-31 20:03:00,
2013-03-31 14:09:00,69.8,48.1,29.95,ESE,110,2.0,8.0,46,0.00,,,0.01,LWC2 V0.39 B123,2013-03-31 20:09:00,
2013-03-31 14:14:00,69.4,48.3,29.95,ESE,122,5.0,6.0,47,0.00,,,0.01,LWC2 V0.39 B123,2013-03-31 20:14:00,
2013-03-31 14:19:00,69.8,48.1,29.95,East,97,3.0,5.0,46,0.00,,,0.01,LWC2 V0.39 B123,2013-03-31 20:19:00,
2013-03-31 14:24:00,69.5,47.8,29.95,ESE,111,5.0,6.0,46,0.00,,,0.01,LWC2 V0.39 B123,2013-03-31 20:24:00,
2013-03-31 14:29:00,69.6,47.9,29.94,East,80,5.0,6.0,46,0.00,,,0.01,LWC2 V0.39 B123,2013-03-31 20:29:00,
2013-03-31 14:34:00,69.4,47.7,29.94,SSE,150,5.0,5.0,46,0.00,,,0.01,LWC2 V0.39 B123,2013-03-31 20:34:00,
2013-03-31 14:39:00,69.8,47.5,29.94,ESE,113,4.0,7.0,45,0.00,,,0.01,LWC2 V0.39 B123,2013-03-31 20:39:00,
2013-03-31 14:44:00,69.7,47.4,29.94,SE,129,7.0,8.0,45,0.00,,,0.01,LWC2 V0.39 B123,2013-03-31 20:44:00,
2013-03-31 14:49:00,69.8,47.5,29.94,ENE,75,4.0,5.0,45,0.00,,,0.01,LWC2 V0.39 B123,2013-03-31 20:49:00,
2013-03-31 14:54:00,69.9,47.0,29.93,East,95,3.0,7.0,44,0.00,,,0.01,LWC2 V0.39 B123,2013-03-31 20:54:00,
2013-03-31 14:59:00,69.8,46.9,29.93,ESE,114,4.0,6.0,44,0.00,,,0.01,LWC2 V0.39 B123,2013-03-31 20:59:00,
2013-03-31 15:04:00,69.8,46.9,29.94,ESE,104,3.0,5.0,44,0.00,,,0.01,LWC2 V0.39 B123,2013-03-31 21:04:00,
2013-03-31 15:09:00,70.1,46.6,29.93,ESE,120,1.0,2.0,43,0.00,,,0.01,LWC2 V0.39 B123,2013-03-31 21:09:00,
2013-03-31 15:14:00,70.2,47.3,29.93,SE,127,5.0,6.0,44,0.00,,,0.01,LWC2 V0.39 B123,2013-03-31 21:14:00,
2013-03-31 15:20:00,70.7,46.5,29.93,SE,130,6.0,7.0,42,0.00,,,0.01,LWC2 V0.39 B123,2013-03-31 21:20:00,
2013-03-31 15:25:00,70.7,45.8,29.93,ENE,60,1.0,2.0,41,0.00,,,0.01,LWC2 V0.39 B123,2013-03-31 21:25:00,
2013-03-31 15:31:00,71.0,46.7,29.93,ENE,75,1.0,3.0,42,0.00,,,0.01,LWC2 V0.39 B123,2013-03-31 21:31:00,
2013-03-31 15:37:00,71.7,45.4,29.93,NW,309,0.0,2.0,39,0.00,,,0.01,LWC2 V0.39 B123,2013-03-31 21:37:00,
2013-03-31 15:42:00,71.9,44.2,29.93,NNE,12,3.0,4.0,37,0.00,,,0.01,LWC2 V0.39 B123,2013-03-31 21:42:00,
2013-03-31 15:48:00,71.7,44.0,29.92,ENE,60,1.0,4.0,37,0.00,,,0.01,LWC2 V0.39 B123,2013-03-31 21:48:00,
2013-03-31 15:53:00,71.8,43.4,29.92,NNE,30,4.0,4.0,36,0.00,,,0.01,LWC2 V0.39 B123,2013-03-31 21:53:00,
2013-03-31 15:58:00,71.9,44.2,29.92,NNE,19,4.0,5.0,37,0.00,,,0.01,LWC2 V0.39 B123,2013-03-31 21:58:00,
2013-03-31 16:03:00,72.1,43.7,29.92,NW,325,2.0,3.0,36,0.00,,,0.01,LWC2 V0.39 B123,2013-03-31 22:03:00,
2013-03-31 16:08:00,72.1,45.1,29.92,NE,49,6.0,6.0,38,0.00,,,0.01,LWC2 V0.39 B123,2013-03-31 22:08:00,
2013-03-31 16:13:00,72.0,44.3,29.92,North,349,2.0,2.0,37,0.00,,,0.01,LWC2 V0.39 B123,2013-03-31 22:13:00,
2013-03-31 16:18:00,71.9,43.5,29.92,North,6,4.0,8.0,36,0.00,,,0.01,LWC2 V0.39 B123,2013-03-31 22:18:00,
2013-03-31 16:24:00,72.2,43.7,29.92,NNE,18,3.0,5.0,36,0.00,,,0.01,LWC2 V0.39 B123,2013-03-31 22:24:00,
2013-03-31 16:29:00,72.0,44.3,29.92,WNW,285,2.0,7.0,37,0.00,,,0.01,LWC2 V0.39 B123,2013-03-31 22:29:00,
2013-03-31 16:34:00,72.2,43.7,29.92,NNE,23,2.0,7.0,36,0.00,,,0.01,LWC2 V0.39 B123,2013-03-31 22:34:00,
2013-03-31 16:39:00,71.8,44.1,29.92,NE,38,4.0,5.0,37,0.00,,,0.01,LWC2 V0.39 B123,2013-03-31 22:39:00,
2013-03-31 16:45:00,71.4,43.0,29.92,North,359,4.0,4.0,36,0.00,,,0.01,LWC2 V0.39 B123,2013-03-31 22:45:00,
2013-03-31 16:51:00,71.4,44.5,29.92,NNE,33,4.0,5.0,38,0.00,,,0.01,LWC2 V0.39 B123,2013-03-31 22:51:00,
2013-03-31 16:57:00,71.3,43.0,29.92,WNW,290,1.0,3.0,36,0.00,,,0.01,LWC2 V0.39 B123,2013-03-31 22:57:00,
2013-03-31 17:02:00,71.2,43.6,29.91,NNE,25,2.0,3.0,37,0.00,,,0.01,LWC2 V0.39 B123,2013-03-31 23:02:00,
2013-03-31 17:07:00,71.3,44.4,29.91,NNE,16,5.0,5.0,38,0.00,,,0.01,LWC2 V0.39 B123,2013-03-31 23:07:00,
2013-03-31 17:12:00,71.3,44.4,29.91,NNE,19,4.0,4.0,38,0.00,,,0.01,LWC2 V0.39 B123,2013-03-31 23:12:00,
2013-03-31 17:17:00,71.1,44.2,29.91,North,359,3.0,3.0,38,0.00,,,0.01,LWC2 V0.39 B123,2013-03-31 23:17:00,
2013-03-31 17:22:00,70.9,43.3,29.91,NE,40,2.0,3.0,37,0.00,,,0.01,LWC2 V0.39 B123,2013-03-31 23:22:00,
2013-03-31 17:27:00,70.7,43.1,29.91,North,11,3.0,5.0,37,0.00,,,0.01,LWC2 V0.39 B123,2013-03-31 23:27:00,
2013-03-31 17:32:00,70.7,43.1,29.91,North,6,4.0,5.0,37,0.00,,,0.01,LWC2 V0.39 B123,2013-03-31 23:32:00,
2013-03-31 17:38:00,70.2,43.4,29.91,ENE,60,3.0,7.0,38,0.00,,,0.01,LWC2 V0.39 B123,2013-03-31 23:38:00,
2013-03-31 17:43:00,70.0,42.5,29.91,NE,34,2.0,4.0,37,0.00,,,0.01,LWC2 V0.39 B123,2013-03-31 23:43:00,
2013-03-31 17:48:00,69.8,42.3,29.91,ENE,76,2.0,3.0,37,0.00,,,0.01,LWC2 V0.39 B123,2013-03-31 23:48:00,
2013-03-31 17:53:00,69.6,42.2,29.91,NE,50,0.0,1.0,37,0.00,,,0.01,LWC2 V0.39 B123,2013-03-31 23:53:00,
2013-03-31 17:58:00,69.4,42.0,29.91,East,84,0.0,3.0,37,0.00,,,0.01,LWC2 V0.39 B123,2013-03-31 23:58:00,
2013-03-31 18:03:00,69.1,42.4,29.91,NE,47,2.0,3.0,38,0.00,,,0.01,LWC2 V0.39 B123,2013-04-01 00:03:00,
2013-03-31 18:08:00,68.9,41.5,29.91,NE,44,2.0,4.0,37,0.00,,,0.01,LWC2 V0.39 B123,2013-04-01 00:08:00,
2013-03-31 18:13:00,68.7,42.1,29.91,NNE,20,1.0,4.0,38,0.00,,,0.01,LWC2 V0.39 B123,2013-04-01 00:13:00,
2013-03-31 18:18:00,68.4,41.1,29.91,NNE,25,1.0,3.0,37,0.00,,,0.01,LWC2 V0.39 B123,2013-04-01 00:18:00,
2013-03-31 18:23:00,68.1,41.5,29.91,NE,45,0.0,1.0,38,0.00,,,0.01,LWC2 V0.39 B123,2013-04-01 00:23:00,
2013-03-31 18:28:00,68.0,42.1,29.91,NNE,31,0.0,1.0,39,0.00,,,0.01,LWC2 V0.39 B123,2013-04-01 00:28:00,
2013-03-31 18:33:00,67.8,41.3,29.90,NNE,32,0.0,1.0,38,0.00,,,0.01,LWC2 V0.39 B123,2013-04-01 00:33:00,
2013-03-31 18:38:00,67.4,41.6,29.91,NNE,31,0.0,1.0,39,0.00,,,0.01,LWC2 V0.39 B123,2013-04-01 00:38:00,
2013-03-31 18:43:00,66.9,41.8,29.91,NNE,32,0.0,0.0,40,0.00,,,0.01,LWC2 V0.39 B123,2013-04-01 00:43:00,
2013-03-31 18:48:00,66.3,41.9,29.91,NNE,31,0.0,0.0,41,0.00,,,0.01,LWC2 V0.39 B123,2013-04-01 00:48:00,
2013-03-31 18:53:00,65.7,41.3,29.91,NNE,31,0.0,0.0,41,0.00,,,0.01,LWC2 V0.39 B123,2013-04-01 00:53:00,
2013-03-31 18:58:00,65.3,41.6,29.91,NNE,32,0.0,0.0,42,0.00,,,0.01,LWC2 V0.39 B123,2013-04-01 00:58:00,
2013-03-31 19:03:00,64.7,41.1,29.91,NNE,32,0.0,0.0,42,0.00,,,0.01,LWC2 V0.39 B123,2013-04-01 01:03:00,
2013-03-31 19:08:00,64.1,40.5,29.91,NNE,32,0.0,0.0,42,0.00,,,0.01,LWC2 V0.39 B123,2013-04-01 01:08:00,
2013-03-31 19:13:00,63.5,40.6,29.91,NNE,31,0.0,0.0,43,0.00,,,0.01,LWC2 V0.39 B123,2013-04-01 01:13:00,
2013-03-31 19:19:00,62.9,40.1,29.91,NNE,31,0.0,0.0,43,0.00,,,0.01,LWC2 V0.39 B123,2013-04-01 01:19:00,
2013-03-31 19:24:00,62.8,40.6,29.92,NNE,32,0.0,0.0,44,0.00,,,0.01,LWC2 V0.39 B123,2013-04-01 01:24:00,
2013-03-31 19:29:00,62.8,41.1,29.92,NNE,13,0.0,0.0,45,0.00,,,0.01,LWC2 V0.39 B123,2013-04-01 01:29:00,
2013-03-31 19:34:00,62.6,41.0,29.92,NNE,13,0.0,0.0,45,0.00,,,0.01,LWC2 V0.39 B123,2013-04-01 01:34:00,
2013-03-31 19:39:00,62.4,40.8,29.92,NNE,13,0.0,0.0,45,0.00,,,0.01,LWC2 V0.39 B123,2013-04-01 01:39:00,
2013-03-31 19:44:00,62.2,40.6,29.92,NNE,13,0.0,0.0,45,0.00,,,0.01,LWC2 V0.39 B123,2013-04-01 01:44:00,
2013-03-31 19:49:00,61.7,40.7,29.93,NNE,13,0.0,0.0,46,0.00,,,0.01,LWC2 V0.39 B123,2013-04-01 01:49:00,
2013-03-31 19:54:00,61.1,40.2,29.93,NNE,13,0.0,0.0,46,0.00,,,0.01,LWC2 V0.39 B123,2013-04-01 01:54:00,
2013-03-31 19:59:00,60.7,39.8,29.93,NNE,13,0.0,0.0,46,0.00,,,0.01,LWC2 V0.39 B123,2013-04-01 01:59:00,
2013-03-31 20:04:00,60.3,40.0,29.93,NNE,29,0.0,1.0,47,0.00,,,0.01,LWC2 V0.39 B123,2013-04-01 02:04:00,
2013-03-31 20:09:00,60.5,40.2,29.93,NNE,29,0.0,0.0,47,0.00,,,0.01,LWC2 V0.39 B123,2013-04-01 02:09:00,
2013-03-31 20:14:00,60.2,39.9,29.94,NNE,29,0.0,1.0,47,0.00,,,0.01,LWC2 V0.39 B123,2013-04-01 02:14:00,
2013-03-31 20:19:00,59.9,40.2,29.94,NNE,27,0.0,0.0,48,0.00,,,0.01,LWC2 V0.39 B123,2013-04-01 02:19:00,
2013-03-31 20:24:00,59.5,39.8,29.94,NNE,27,0.0,0.0,48,0.00,,,0.01,LWC2 V0.39 B123,2013-04-01 02:24:00,
2013-03-31 20:29:00,59.4,40.2,29.94,NNE,29,0.0,0.0,49,0.00,,,0.01,LWC2 V0.39 B123,2013-04-01 02:29:00,
2013-03-31 20:34:00,59.3,40.1,29.94,NNE,29,0.0,0.0,49,0.00,,,0.01,LWC2 V0.39 B123,2013-04-01 02:34:00,
2013-03-31 20:39:00,59.0,39.9,29.95,NNE,29,0.0,0.0,49,0.00,,,0.01,LWC2 V0.39 B123,2013-04-01 02:39:00,
2013-03-31 20:44:00,58.8,39.7,29.95,NNE,27,0.0,0.0,49,0.00,,,0.01,LWC2 V0.39 B123,2013-04-01 02:44:00,
2013-03-31 20:49:00,58.3,39.2,29.95,NNE,27,0.0,0.0,49,0.00,,,0.01,LWC2 V0.39 B123,2013-04-01 02:49:00,
2013-03-31 20:54:00,57.9,39.4,29.95,NNE,27,0.0,0.0,50,0.00,,,0.01,LWC2 V0.39 B123,2013-04-01 02:54:00,
2013-03-31 21:00:00,57.9,39.9,29.95,NNE,27,0.0,0.0,51,0.00,,,0.01,LWC2 V0.39 B123,2013-04-01 03:00:00,
2013-03-31 21:05:00,57.6,40.1,29.96,NNE,27,0.0,0.0,52,0.00,,,0.01,LWC2 V0.39 B123,2013-04-01 03:05:00,
2013-03-31 21:10:00,57.2,40.2,29.96,NNE,27,0.0,0.0,53,0.00,,,0.01,LWC2 V0.39 B123,2013-04-01 03:10:00,
2013-03-31 21:15:00,56.9,39.9,29.96,NNE,27,0.0,0.0,53,0.00,,,0.01,LWC2 V0.39 B123,2013-04-01 03:15:00,
2013-03-31 21:20:00,56.4,40.0,29.96,NNE,27,0.0,0.0,54,0.00,,,0.01,LWC2 V0.39 B123,2013-04-01 03:20:00,
2013-03-31 21:25:00,56.2,39.8,29.96,NNE,27,0.0,0.0,54,0.00,,,0.01,LWC2 V0.39 B123,2013-04-01 03:25:00,
2013-03-31 21:30:00,57.1,40.1,29.96,NNE,27,0.0,0.0,53,0.00,,,0.01,LWC2 V0.39 B123,2013-04-01 03:30:00,
2013-03-31 21:36:00,57.4,39.9,29.97,NNE,27,0.0,0.0,52,0.00,,,0.01,LWC2 V0.39 B123,2013-04-01 03:36:00,
2013-03-31 21:42:00,57.5,40.0,29.97,NNE,16,0.0,2.0,52,0.00,,,0.01,LWC2 V0.39 B123,2013-04-01 03:42:00,
2013-03-31 21:47:00,56.7,40.2,29.98,NW,315,1.0,2.0,54,0.00,,,0.01,LWC2 V0.39 B123,2013-04-01 03:47:00,
2013-03-31 21:53:00,54.9,42.1,29.98,NW,316,0.0,1.0,62,0.00,,,0.01,LWC2 V0.39 B123,2013-04-01 03:53:00,
2013-03-31 21:58:00,54.6,42.3,29.98,NW,316,0.0,0.0,63,0.00,,,0.01,LWC2 V0.39 B123,2013-04-01 03:58:00,
2013-03-31 22:00:00,54.7,41.9,29.98,NW,316,0.0,0.0,62,0.00,,,0.01,LWC2 V0.39 B123,2013-04-01 04:00:00,
2013-03-31 22:01:00,54.7,41.9,29.98,NW,316,0.0,0.0,62,0.00,,,0.01,LWC2 V0.39 B123,2013-04-01 04:01:00,
2013-03-31 22:02:00,54.7,41.9,29.98,NW,316,0.0,0.0,62,0.00,,,0.01,LWC2 V0.39 B123,2013-04-01 04:02:00,
2013-03-31 22:07:00,54.8,41.2,29.98,NW,316,0.0,0.0,60,0.00,,,0.01,LWC2 V0.39 B123,2013-04-01 04:07:00,
2013-03-31 22:08:00,54.9,41.3,29.98,NW,316,0.0,0.0,60,0.00,,,0.01,LWC2 V0.39 B123,2013-04-01 04:08:00,
2013-03-31 22:13:00,55.7,41.2,29.98,NW,316,0.0,0.0,58,0.00,,,0.01,LWC2 V0.39 B123,2013-04-01 04:13:00,
2013-03-31 22:15:00,55.9,41.3,29.98,NW,316,0.0,0.0,58,0.00,,,0.01,LWC2 V0.39 B123,2013-04-01 04:15:00,
2013-03-31 22:20:00,56.0,41.0,29.98,NW,318,0.0,0.0,57,0.00,,,0.01,LWC2 V0.39 B123,2013-04-01 04:20:00,
2013-03-31 22:25:00,56.0,41.4,29.98,NW,317,0.0,0.0,58,0.00,,,0.01,LWC2 V0.39 B123,2013-04-01 04:25:00,
2013-03-31 22:30:00,56.1,41.1,29.98,NW,317,0.0,0.0,57,0.00,,,0.01,LWC2 V0.39 B123,2013-04-01 04:30:00,
2013-03-31 22:35:00,56.2,41.6,29.98,NW,317,0.0,0.0,58,0.00,,,0.01,LWC2 V0.39 B123,2013-04-01 04:35:00,
2013-03-31 22:40:00,56.0,41.4,29.98,NW,317,0.0,0.0,58,0.00,,,0.01,LWC2 V0.39 B123,2013-04-01 04:40:00,
2013-03-31 22:45:00,55.7,41.6,29.98,NW,317,0.0,0.0,59,0.00,,,0.01,LWC2 V0.39 B123,2013-04-01 04:45:00,
2013-03-31 22:50:00,55.5,41.4,29.98,NW,317,0.0,0.0,59,0.00,,,0.01,LWC2 V0.39 B123,2013-04-01 04:50:00,
2013-03-31 22:55:00,55.6,41.5,29.98,NW,318,0.0,0.0,59,0.00,,,0.01,LWC2 V0.39 B123,2013-04-01 04:55:00,
2013-03-31 23:00:00,55.5,41.8,29.98,NE,51,0.0,0.0,60,0.00,,,0.00,LWC2 V0.39 B123,2013-04-01 05:00:00,
2013-03-31 23:05:00,53.9,41.6,29.98,ENE,60,0.0,0.0,63,0.00,,,0.00,LWC2 V0.39 B123,2013-04-01 05:05:00,
2013-03-31 23:10:00,52.6,41.2,29.98,ENE,59,0.0,0.0,65,0.00,,,0.00,LWC2 V0.39 B123,2013-04-01 05:10:00,
2013-03-31 23:15:00,52.1,40.7,29.98,ENE,60,0.0,0.0,65,0.00,,,0.00,LWC2 V0.39 B123,2013-04-01 05:15:00,
2013-03-31 23:20:00,51.6,40.2,29.98,ENE,59,0.0,0.0,65,0.00,,,0.00,LWC2 V0.39 B123,2013-04-01 05:20:00,
2013-03-31 23:25:00,51.2,39.8,29.98,ENE,60,0.0,0.0,65,0.00,,,0.00,LWC2 V0.39 B123,2013-04-01 05:25:00,
2013-03-31 23:30:00,51.3,40.3,29.98,ENE,60,0.0,0.0,66,0.00,,,0.00,LWC2 V0.39 B123,2013-04-01 05:30:00,
2013-03-31 23:35:00,52.0,40.6,29.98,ENE,61,0.0,0.0,65,0.00,,,0.00,LWC2 V0.39 B123,2013-04-01 05:35:00,
2013-03-31 23:40:00,53.0,40.7,29.98,ENE,59,0.0,0.0,63,0.00,,,0.00,LWC2 V0.39 B123,2013-04-01 05:40:00,
2013-03-31 23:45:00,53.6,40.9,29.98,ENE,60,0.0,0.0,62,0.00,,,0.00,LWC2 V0.39 B123,2013-04-01 05:45:00,
2013-03-31 23:50:00,53.7,40.6,29.97,ENE,59,0.0,0.0,61,0.00,,,0.00,LWC2 V0.39 B123,2013-04-01 05:50:00,
2013-03-31 23:55:00,54.0,40.9,29.98,ENE,61,0.0,0.0,61,0.00,,,0.00,LWC2 V0.39 B123,2013-04-01 05:55:00,